Location: Buch
(49.7331°N, 12.1098°E)
Time: 18:14:12
(UTC+00:00)

Landsat 7 - Pass Details

Date: 29 September 2021
Orbit: 701 x 703 km, 98.0° (Epoch: 24 October)

Event Time Altitude Azimuth Distance (km) Brightness Sun altitude
Exits shadow 18:06:57 15° 74° (ENE) 1,867 5.5 -12.6°
Maximum altitude 18:08:08 16° 57° (ENE) 1,796 5.5 -12.7°
Drops below altitude 10° 18:11:00 10° 19° (NNE) 2,182 6.3 -13.2°
Sets 18:14:02 0° 359° (N) 3,105 7.3 -13.7°
